sat.trackr.live / text

‹ back to catalog

STARLINK-4430

NORAD 53485 · 2022-099W

PAYLOAD ACTIVE UNKNOWN

§ Identity

Operator
Country
US
Launch date
2022-08-12
Launch site
AFWTR
Launch vehicle
Mass (kg)
RCS (m²)

Purposes: comms

External: N2YO · Heavens-Above · Gunter

§ Orbital elements

Epoch: 2026-09-20T04:00:03.000096Z

Period
94.91 min
Inclination
97.2824°
Eccentricity
0.0001931
Mean motion
15.17223411 rev/d
Perigee alt
512.9 km
Apogee alt
515.6 km
Semi-major
6,892.4 km
B*
4.0452e-3
RAAN
17.0603°
Arg perigee
73.1273°
Mean anomaly
351.8473°
Rev number
583

§ Raw data

STARLINK-44301 53485U 22099W   26263.16670139  .00081211  00000+0  40452-2 0  99982 53485  97.2824  17.0603 0001931  73.1273 351.8473 15.17223411  5837

JSON: /api/v1/satellites/53485 · /tle

For live sub-satellite position, see the globe view (requires WebGL).

§ Visibility from observer

Set your observer location to see the next 7 days of passes ≥ 10°. The values pass through the URL so the page stays shareable.

No JS? Fill the form by hand. The geolocation button needs JavaScript.